Location: Berg
(48.5667°N, 13.9833°E)
Time: 17:11:16
(UTC+00:00)

Lacrosse 5 rocket - Visible Passes

Search period start: 04 August 2021 00:00
Search period end: 14 August 2021 00:00
Orbit: 460 x 633 km, 57.0° (Epoch: 03 August)

Date Brightness Start Highest point End Pass type
(mag) Time Alt. Az. Time Alt. Az. Time Alt. Az.
07 Aug 4.0 02:21:24 10° SE 02:23:00 12° ESE 02:24:35 10° E visible
08 Aug 3.8 02:14:03 10° SSE 02:16:39 15° SE 02:19:11 10° E visible
09 Aug 3.5 02:07:10 10° S 02:10:18 19° SE 02:13:25 10° E visible
10 Aug 3.1 02:01:23 15° S 02:03:58 24° SE 02:07:30 10° ENE visible
11 Aug 2.7 01:55:32 20° S 01:57:40 31° SE 02:01:28 10° ENE visible
12 Aug 2.3 01:49:37 27° S 01:51:23 38° SE 01:55:23 10° ENE visible
13 Aug 2.0 01:43:39 34° S 01:45:07 48° SE 01:49:16 10° ENE visible
